Location: St. Louis
(38.6270°N, 90.1994°W)
Time: 08:35:19
(UTC-06:00)

Transit 2A Rocket - Pass Details

Date: 29 November 2021
Orbit: 584 x 917 km, 66.7° (Epoch: 23 January)

Event Time Altitude Azimuth Distance (km) Brightness Sun altitude
Rises 19:17:47 0° 312° (NW) 3,529 9.0 -30.2°
Reaches altitude 10° 19:21:37 10° 288° (WNW) 2,542 8.4 -31.0°
Maximum altitude 19:24:30 14° 259° (W) 2,222 8.2 -31.5°
Drops below altitude 10° 19:27:18 10° 229° (SW) 2,447 8.2 -32.1°
Sets 19:30:53 0° 205° (SSW) 3,304 8.6 -32.8°
